OK,59,48,812,59,2014-10-01T01:40:00,0,28072582,184621
OK,59,48,812,59,2014-10-01T01:45:00,0,28073029,184621
OK,59,48,812,59,2014-10-01T01:50:00,0,28073478,184621
OK,59,48,812,59,2014-10-01T01:55:00,0,28073796,184621
OK,59,48,812,59,2014-10-01T02:00:00,0,28074244,184621
OK,59,48,812,59,2014-10-01T02:05:00,0,28074687,184621
OK,59,48,812,59,2014-10-01T02:10:00,0,28075133,184621
OK,59,48,812,59,2014-10-01T02:20:00,0,28075582,184621
OK,59,48,812,59,2014-10-01T02:25:00,0,28076414,184621
OK,59,48,812,59,2014-10-01T02:30:00,0,28076863,184621
OK,59,48,812,59,2014-10-01T02:35:00,0,28077312,184621
OK,59,48,812,59,2014-10-01T02:40:00,0,28077725,184621
OK,59,48,812,59,2014-10-01T02:45:00,0,28078164,184621
OK,59,48,812,59,2014-10-01T02:50:00,0,28078609,184621
OK,59,48,812,59,2014-10-01T02:55:00,0,28079058,184621
OK,59,48,812,59,2014-10-01T03:00:00,0,28079502,184621
OK,59,48,812,59,2014-10-01T03:05:00,0,28079949,184621
OK,59,48,812,59,2014-10-01T03:10:00,0,28080294,184621
OK,59,48,812,59,2014-10-01T03:15:00,0,28080732,184621
OK,59,48,812,59,2014-10-01T03:20:00,0,28081181,184621
OK,59,48,812,59,2014-10-01T03:25:00,0,28081628,184621
OK,59,48,812,59,2014-10-01T03:30:00,0,28082077,184621
OK,59,48,812,59,2014-10-01T03:35:00,0,28082521,184621
OK,70,40,812,70,2014-10-01T03:40:00,1,28082946,184621
OK,70,40,812,70,2014-10-01T03:45:00,1,28083391,184621
OK,70,40,812,70,2014-10-01T03:55:00,0,28083840,184621
OK,70,40,812,70,2014-10-01T04:00:00,0,28084289,184621
OK,74,38,812,74,2014-10-01T04:10:00,0,28085155,184621
OK,75,37,812,75,2014-10-01T04:20:00,1,28086049,184621
OK,75,37,812,75,2014-10-01T04:25:00,0,28086940,184621
OK,75,37,812,75,2014-10-01T04:30:00,0,28087385,184621
OK,75,37,812,75,2014-10-01T04:35:00,0,28087834,184621
OK,82,34,812,82,2014-10-01T04:40:00,2,28088271,184621
OK,82,34,812,82,2014-10-01T04:45:00,4,28088707,184621
OK,103,27,812,103,2014-10-01T04:50:00,3,28089141,184621
OK,107,26,812,107,2014-10-01T04:55:00,1,28089586,184621
OK,84,33,812,84,2014-10-01T05:05:00,3,28090035,184621
OK,85,33,812,85,2014-10-01T05:10:00,4,28090828,184621
OK,90,31,812,90,2014-10-01T05:15:00,3,28091277,184621
OK,61,46,812,61,2014-10-01T05:20:00,0,28091704,184621
OK,61,46,812,61,2014-10-01T05:25:00,0,28092143,184621
OK,61,46,812,61,2014-10-01T05:30:00,2,28092588,184621
OK,69,41,812,69,2014-10-01T05:35:00,3,28093031,184621
OK,114,24,812,114,2014-10-01T05:40:00,2,28093461,184621
OK,91,31,812,91,2014-10-01T05:45:00,2,28093908,184621
OK,91,31,812,91,2014-10-01T05:50:00,2,28094332,184621
OK,170,16,812,170,2014-10-01T05:55:00,4,28094764,184621
OK,173,16,812,173,2014-10-01T06:00:00,4,28095212,184621
OK,242,11,812,242,2014-10-01T06:05:00,3,28095660,184621
OK,255,11,812,255,2014-10-01T06:10:00,4,28096082,184621
OK,320,8,812,320,2014-10-01T06:15:00,5,28096522,184621
OK,315,9,812,315,2014-10-01T06:20:00,4,28096962,184621
OK,326,8,812,326,2014-10-01T06:25:00,5,28097405,184621
OK,134,21,812,134,2014-10-01T06:35:00,5,28097854,184621
OK,114,24,812,114,2014-10-01T06:40:00,3,28098739,184621
OK,68,41,812,68,2014-10-01T06:45:00,2,28099183,184621
OK,87,32,812,87,2014-10-01T06:50:00,4,28099537,184621
OK,100,28,812,100,2014-10-01T06:55:00,2,28099975,184621
OK,124,22,812,124,2014-10-01T07:00:00,3,28100290,184621
OK,105,27,812,105,2014-10-01T07:05:00,8,28100731,184621
OK,84,33,812,84,2014-10-01T07:10:00,6,28101106,184621
OK,87,32,812,87,2014-10-01T07:15:00,3,28101551,184621
OK,123,23,812,123,2014-10-01T07:20:00,4,28101993,184621
OK,70,40,812,70,2014-10-01T07:30:00,2,28102436,184621
OK,90,31,812,90,2014-10-01T07:35:00,1,28103311,184621
OK,90,31,812,90,2014-10-01T07:40:00,0,28103757,184621
OK,101,28,812,101,2014-10-01T07:45:00,2,28104203,184621
OK,103,27,812,103,2014-10-01T07:50:00,3,28104645,184621
OK,124,22,812,124,2014-10-01T07:55:00,2,28105086,184621
OK,83,34,812,83,2014-10-01T08:00:00,2,28105530,184621
OK,103,27,812,103,2014-10-01T08:05:00,4,28105975,184621
OK,103,27,812,103,2014-10-01T08:10:00,6,28106415,184621
OK,152,18,812,152,2014-10-01T08:15:00,2,28106822,184621
OK,110,25,812,110,2014-10-01T08:20:00,2,28107250,184621
OK,82,34,812,82,2014-10-01T08:25:00,1,28107699,184621
OK,104,27,812,104,2014-10-01T08:30:00,4,28108139,184621
OK,93,30,812,93,2014-10-01T08:35:00,5,28108587,184621
OK,89,31,812,89,2014-10-01T08:40:00,4,28109019,184621
OK,71,40,812,71,2014-10-01T08:45:00,2,28109464,184621
OK,87,32,812,87,2014-10-01T08:50:00,0,28109812,184621
OK,126,22,812,126,2014-10-01T08:55:00,2,28110256,184621
OK,126,22,812,126,2014-10-01T09:00:00,2,28110682,184621
OK,93,30,812,93,2014-10-01T09:05:00,1,28111128,184621
OK,93,30,812,93,2014-10-01T09:10:00,5,28111560,184621
OK,85,33,812,85,2014-10-01T09:15:00,4,28112006,184621
OK,105,27,812,105,2014-10-01T09:20:00,0,28112351,184621
OK,119,23,812,119,2014-10-01T09:25:00,3,28112796,184621
OK,119,23,812,119,2014-10-01T09:30:00,3,28113224,184621
OK,144,19,812,144,2014-10-01T09:35:00,1,28113669,184621
OK,124,22,812,124,2014-10-01T09:40:00,1,28114102,184621
OK,124,22,812,124,2014-10-01T09:45:00,0,28114550,184621
OK,88,32,812,88,2014-10-01T09:50:00,1,28114906,184621
OK,92,30,812,92,2014-10-01T09:55:00,2,28115353,184621
OK,98,28,812,98,2014-10-01T10:00:00,4,28115774,184621
OK,117,24,812,117,2014-10-01T10:05:00,5,28116214,184621
OK,118,24,812,118,2014-10-01T10:10:00,3,28116631,184621
OK,90,31,812,90,2014-10-01T10:15:00,7,28117071,184621
OK,83,34,812,83,2014-10-01T10:20:00,4,28117499,184621
OK,101,28,812,101,2014-10-01T10:25:00,3,28117945,184621
OK,80,35,812,80,2014-10-01T10:30:00,0,28118390,184621
OK,89,31,812,89,2014-10-01T10:35:00,3,28118838,184621
OK,139,20,812,139,2014-10-01T10:40:00,1,28119281,184621
OK,103,27,812,103,2014-10-01T10:45:00,2,28119729,184621
OK,105,27,812,105,2014-10-01T10:50:00,3,28120177,184621
OK,97,29,812,97,2014-10-01T10:55:00,3,28120626,184621
OK,106,26,812,106,2014-10-01T11:00:00,4,28121013,184621
OK,115,24,812,115,2014-10-01T11:05:00,8,28121458,184621
OK,107,26,812,107,2014-10-01T11:10:00,8,28121897,184621
OK,99,28,812,99,2014-10-01T11:15:00,3,28122345,184621
OK,125,22,812,125,2014-10-01T11:20:00,6,28122787,184621
OK,125,22,812,125,2014-10-01T11:25:00,5,28123235,184621
OK,73,38,812,73,2014-10-01T11:30:00,1,28123669,184621
OK,73,38,812,73,2014-10-01T11:35:00,0,28124116,184621
OK,73,38,812,73,2014-10-01T11:40:00,0,28124527,184621
OK,114,24,812,114,2014-10-01T11:45:00,1,28124967,184621
OK,114,24,812,114,2014-10-01T11:50:00,3,28125398,184621
OK,97,29,812,97,2014-10-01T11:55:00,3,28125845,184621
OK,113,25,812,113,2014-10-01T12:00:00,4,28126199,184621
OK,136,20,812,136,2014-10-01T12:05:00,7,28126646,184621
OK,168,16,812,168,2014-10-01T12:10:00,5,28127095,184621
OK,95,29,812,95,2014-10-01T12:15:00,1,28127544,184621
OK,100,28,812,100,2014-10-01T12:20:00,4,28127974,184621
OK,102,27,812,102,2014-10-01T12:25:00,6,28128421,184621
OK,132,21,812,132,2014-10-01T12:30:00,4,28128858,184621
OK,137,20,812,137,2014-10-01T12:35:00,4,28129305,184621
OK,128,22,812,128,2014-10-01T12:40:00,3,28129740,184621
OK,188,15,812,188,2014-10-01T12:45:00,1,28130188,184621
OK,188,15,812,188,2014-10-01T12:50:00,0,28130618,184621
OK,188,15,812,188,2014-10-01T12:55:00,0,28131065,184621
OK,119,23,812,119,2014-10-01T13:00:00,1,28131504,184621
OK,132,21,812,132,2014-10-01T13:05:00,5,28131951,184621
OK,132,21,812,132,2014-10-01T13:10:00,5,28132390,184621
OK,133,21,812,133,2014-10-01T13:15:00,2,28132836,184621
OK,141,20,812,141,2014-10-01T13:20:00,4,28133274,184621
OK,171,16,812,171,2014-10-01T13:25:00,6,28133723,184621
OK,147,19,812,147,2014-10-01T13:30:00,3,28134162,184621
OK,129,22,812,129,2014-10-01T13:35:00,3,28134611,184621
OK,186,15,812,186,2014-10-01T13:40:00,4,28135031,184621
OK,151,18,812,151,2014-10-01T13:45:00,7,28135479,184621
OK,97,29,812,97,2014-10-01T13:50:00,4,28135916,184621
OK,118,24,812,118,2014-10-01T13:55:00,2,28136365,184621
OK,128,22,812,128,2014-10-01T14:00:00,7,28136805,184621
OK,128,22,812,128,2014-10-01T14:05:00,6,28137254,184621
OK,156,18,812,156,2014-10-01T14:10:00,4,28137689,184621
OK,157,18,812,157,2014-10-01T14:15:00,2,28138137,184621
OK,140,20,812,140,2014-10-01T14:20:00,3,28138566,184621
OK,134,21,812,134,2014-10-01T14:25:00,4,28139014,184621
OK,170,16,812,170,2014-10-01T14:30:00,4,28139426,184621
OK,170,16,812,170,2014-10-01T14:35:00,4,28139874,184621
OK,110,25,812,110,2014-10-01T14:40:00,1,28140317,184621
OK,110,25,812,110,2014-10-01T14:45:00,0,28140765,184621
OK,110,25,812,110,2014-10-01T14:50:00,0,28141193,184621
OK,142,20,812,142,2014-10-01T14:55:00,2,28141640,184621
OK,134,21,812,134,2014-10-01T15:00:00,5,28142070,184621
OK,124,22,812,124,2014-10-01T15:05:00,4,28142517,184621
OK,113,25,812,113,2014-10-01T15:10:00,3,28142947,184621
OK,102,27,812,102,2014-10-01T15:15:00,4,28143393,184621
OK,138,20,812,138,2014-10-01T15:20:00,3,28143841,184621
OK,140,20,812,140,2014-10-01T15:25:00,1,28144290,184621
OK,77,36,812,77,2014-10-01T15:30:00,1,28144717,184621
OK,77,36,812,77,2014-10-01T15:35:00,3,28145125,184621
OK,145,19,812,145,2014-10-01T15:40:00,3,28145574,184621
OK,98,28,812,98,2014-10-01T15:45:00,4,28146023,184621
OK,111,25,812,111,2014-10-01T15:50:00,5,28146472,184621
OK,123,23,812,123,2014-10-01T15:55:00,1,28146895,184621
OK,123,23,812,123,2014-10-01T16:00:00,0,28147325,184621
OK,151,18,812,151,2014-10-01T16:05:00,2,28147773,184621
OK,151,18,812,151,2014-10-01T16:10:00,2,28148176,184621
OK,151,18,812,151,2014-10-01T16:15:00,0,28148623,184621
OK,151,18,812,151,2014-10-01T16:20:00,0,28149064,184621
OK,151,18,812,151,2014-10-01T16:25:00,0,28149511,184621
OK,108,26,812,108,2014-10-01T16:30:00,4,28149940,184621
OK,105,27,812,105,2014-10-01T16:35:00,6,28150386,184621
OK,117,24,812,117,2014-10-01T16:40:00,4,28150807,184621
OK,115,24,812,115,2014-10-01T16:45:00,3,28151253,184621
OK,64,44,812,64,2014-10-01T16:55:00,3,28151702,184621
OK,86,33,812,86,2014-10-01T17:00:00,1,28152151,184621
OK,86,33,812,86,2014-10-01T17:05:00,0,28152597,184621
OK,53,53,812,53,2014-10-01T17:10:00,1,28153044,184621
OK,53,53,812,53,2014-10-01T17:15:00,0,28153493,184621
OK,81,35,812,81,2014-10-01T17:20:00,1,28153913,184621
OK,74,38,812,74,2014-10-01T17:25:00,2,28154352,184621
OK,75,37,812,75,2014-10-01T17:30:00,2,28154795,184621
OK,70,40,812,70,2014-10-01T17:35:00,2,28155242,184621
OK,77,36,812,77,2014-10-01T17:40:00,2,28155666,184621
OK,96,29,812,96,2014-10-01T17:45:00,1,28156109,184621
OK,56,50,812,56,2014-10-01T17:50:00,3,28156558,184621
OK,54,52,812,54,2014-10-01T17:55:00,2,28156997,184621
OK,65,43,812,65,2014-10-01T18:00:00,1,28157429,184621
OK,62,45,812,62,2014-10-01T18:05:00,2,28157874,184621
OK,60,47,812,60,2014-10-01T18:10:00,1,28158318,184621
OK,60,47,812,60,2014-10-01T18:15:00,0,28158765,184621
OK,60,47,812,60,2014-10-01T18:20:00,0,28159210,184621
OK,60,47,812,60,2014-10-01T18:25:00,0,28159546,184621
OK,60,47,812,60,2014-10-01T18:30:00,0,28159994,184621
OK,60,47,812,60,2014-10-01T18:35:00,0,28160443,184621
OK,44,64,812,44,2014-10-01T18:40:00,1,28160883,184621
OK,44,64,812,44,2014-10-01T18:45:00,0,28161330,184621
OK,44,64,812,44,2014-10-01T18:50:00,0,28161748,184621
OK,44,64,812,44,2014-10-01T19:00:00,0,28162196,184621
OK,44,64,812,44,2014-10-01T19:05:00,0,28163030,184621
OK,44,64,812,44,2014-10-01T19:10:00,0,28163477,184621
OK,44,64,812,44,2014-10-01T19:15:00,0,28163926,184621
OK,52,54,812,52,2014-10-01T19:20:00,1,28164359,184621
OK,52,54,812,52,2014-10-01T19:25:00,0,28164806,184621
OK,68,41,812,68,2014-10-01T19:30:00,3,28165235,184621
OK,42,67,812,42,2014-10-01T19:35:00,3,28165679,184621
OK,66,43,812,66,2014-10-01T19:40:00,2,28166120,184621
OK,60,47,812,60,2014-10-01T19:45:00,1,28166482,184621
OK,60,47,812,60,2014-10-01T19:50:00,1,28166931,184621
OK,60,47,812,60,2014-10-01T19:55:00,0,28167360,184621
OK,47,60,812,47,2014-10-01T20:00:00,1,28167794,184621
OK,47,60,812,47,2014-10-01T20:05:00,0,28168242,184621
OK,47,60,812,47,2014-10-01T20:10:00,0,28168687,184621
OK,47,60,812,47,2014-10-01T20:15:00,0,28169136,184621
OK,47,60,812,47,2014-10-01T20:20:00,0,28169584,184621
OK,47,60,812,47,2014-10-01T20:25:00,0,28170010,184621
OK,54,52,812,54,2014-10-01T20:30:00,1,28170455,184621
OK,54,52,812,54,2014-10-01T20:35:00,1,28170903,184621
OK,54,52,812,54,2014-10-01T20:40:00,0,28171340,184621
OK,54,52,812,54,2014-10-01T20:45:00,0,28171786,184621
OK,54,52,812,54,2014-10-01T20:50:00,0,28172234,184621
OK,54,52,812,54,2014-10-01T20:55:00,0,28172680,184621
OK,49,57,812,49,2014-10-01T21:00:00,1,28173126,184621
OK,49,57,812,49,2014-10-01T21:05:00,1,28173575,184621
OK,51,55,812,51,2014-10-01T21:10:00,1,28174016,184621
OK,53,53,812,53,2014-10-01T21:15:00,3,28174465,184621
OK,55,51,812,55,2014-10-01T21:20:00,2,28174891,184621
OK,54,52,812,54,2014-10-01T21:25:00,1,28175287,184621
OK,75,37,812,75,2014-10-01T21:30:00,2,28175736,184621
OK,53,53,812,53,2014-10-01T21:35:00,1,28176185,184621
OK,152,18,812,152,2014-10-01T21:45:00,1,28176634,184621
OK,149,19,812,149,2014-10-01T21:50:00,1,28177430,184621
OK,59,48,812,59,2014-10-01T21:55:00,1,28177876,184621
OK,59,48,812,59,2014-10-01T22:00:00,0,28178325,184621
OK,59,48,812,59,2014-10-01T22:05:00,0,28178772,184621
OK,59,48,812,59,2014-10-01T22:10:00,0,28179208,184621
OK,59,48,812,59,2014-10-01T22:15:00,0,28179649,184621
OK,59,48,812,59,2014-10-01T22:20:00,0,28180096,184621
OK,59,48,812,59,2014-10-01T22:25:00,0,28180495,184621
OK,59,48,812,59,2014-10-01T22:30:00,0,28180943,184621
OK,59,48,812,59,2014-10-01T22:35:00,0,28181367,184621
OK,59,48,812,59,2014-10-01T22:40:00,0,28181815,184621
OK,59,48,812,59,2014-10-01T22:45:00,0,28182262,184621
OK,59,48,812,59,2014-10-01T22:50:00,0,28182711,184621
OK,59,48,812,59,2014-10-01T22:55:00,0,28183128,184621
OK,59,48,812,59,2014-10-01T23:00:00,0,28183561,184621
OK,59,48,812,59,2014-10-01T23:05:00,0,28184006,184621
OK,59,48,812,59,2014-10-01T23:10:00,0,28184455,184621
OK,59,48,812,59,2014-10-01T23:15:00,0,28184890,184621
OK,59,48,812,59,2014-10-01T23:20:00,0,28185338,184621
OK,59,48,812,59,2014-10-01T23:25:00,0,28185769,184621
OK,59,48,812,59,2014-10-01T23:30:00,0,28186161,184621
OK,59,48,812,59,2014-10-01T23:40:00,0,28187008,184621
OK,59,48,812,59,2014-10-01T23:45:00,0,28187450,184621
OK,59,48,812,59,2014-10-01T23:50:00,0,28187899,184621
OK,59,48,812,59,2014-10-01T23:55:00,0,28188340,184621
OK,59,48,812,59,2014-10-02T00:00:00,0,28188776,184621
OK,59,48,812,59,2014-10-02T00:05:00,0,28189225,184621
OK,59,48,812,59,2014-10-02T00:10:00,0,28189650,184621
OK,59,48,812,59,2014-10-02T00:15:00,0,28190096,184621
OK,59,48,812,59,2014-10-02T00:20:00,0,28190452,184621
OK,59,48,812,59,2014-10-02T00:25:00,0,28190898,184621
OK,59,48,812,59,2014-10-02T00:30:00,0,28191347,184621
OK,59,48,812,59,2014-10-02T00:35:00,0,28191656,184621
OK,59,48,812,59,2014-10-02T00:40:00,0,28192102,184621
OK,59,48,812,59,2014-10-02T00:45:00,0,28192536,184621
OK,59,48,812,59,2014-10-02T00:50:00,0,28192979,184621
OK,59,48,812,59,2014-10-02T00:55:00,0,28193346,184621
OK,59,48,812,59,2014-10-02T01:05:00,0,28194244,184621
OK,59,48,812,59,2014-10-02T01:15:00,0,28194693,184621
OK,59,48,812,59,2014-10-02T01:20:00,0,28195378,184621
OK,59,48,812,59,2014-10-02T01:30:00,0,28195827,184621
OK,59,48,812,59,2014-10-02T01:35:00,0,28196560,184621
OK,59,48,812,59,2014-10-02T01:40:00,0,28196985,184621
OK,59,48,812,59,2014-10-02T01:45:00,0,28197432,184621
OK,59,48,812,59,2014-10-02T01:50:00,0,28197880,184621
OK,59,48,812,59,2014-10-02T01:55:00,0,28198328,184621
OK,59,48,812,59,2014-10-02T02:05:00,0,28198777,184621
OK,59,48,812,59,2014-10-02T02:10:00,0,28199591,184621
OK,59,48,812,59,2014-10-02T02:15:00,0,28200033,184621
OK,59,48,812,59,2014-10-02T02:20:00,0,28200476,184621
OK,59,48,812,59,2014-10-02T02:25:00,0,28200925,184621
OK,59,48,812,59,2014-10-02T02:30:00,0,28201356,184621
OK,59,48,812,59,2014-10-02T02:45:00,0,28202254,184621
OK,59,48,812,59,2014-10-02T02:50:00,0,28202696,184621
OK,59,48,812,59,2014-10-02T02:55:00,0,28203144,184621
OK,59,48,812,59,2014-10-02T03:00:00,0,28203579,184621
OK,59,48,812,59,2014-10-02T03:10:00,0,28204028,184621
OK,59,48,812,59,2014-10-02T03:25:00,0,28204477,184621
OK,59,48,812,59,2014-10-02T03:30:00,0,28204926,184621
OK,53,53,812,53,2014-10-02T03:35:00,1,28205356,184621
OK,53,53,812,53,2014-10-02T03:40:00,1,28205801,184621
OK,57,49,812,57,2014-10-02T03:45:00,0,28206184,184621
OK,57,49,812,57,2014-10-02T03:55:00,0,28207082,184621
OK,95,29,812,95,2014-10-02T04:00:00,1,28207504,184621
OK,95,29,812,95,2014-10-02T04:05:00,0,28207950,184621
OK,95,29,812,95,2014-10-02T04:10:00,0,28208380,184621
OK,95,29,812,95,2014-10-02T04:15:00,0,28208826,184621
OK,48,59,812,48,2014-10-02T04:20:00,1,28209265,184621
OK,48,59,812,48,2014-10-02T04:25:00,0,28209713,184621
OK,86,33,812,86,2014-10-02T04:30:00,1,28210139,184621
OK,86,33,812,86,2014-10-02T04:35:00,0,28210585,184621
OK,43,66,812,43,2014-10-02T04:40:00,1,28211014,184621
OK,43,66,812,43,2014-10-02T04:45:00,1,28211454,184621
OK,43,66,812,43,2014-10-02T04:50:00,0,28211832,184621
OK,115,24,812,115,2014-10-02T04:55:00,2,28212281,184621
OK,99,28,812,99,2014-10-02T05:00:00,0,28212714,184621
OK,92,30,812,92,2014-10-02T05:05:00,2,28213159,184621
OK,66,43,812,66,2014-10-02T05:10:00,1,28213600,184621
OK,82,34,812,82,2014-10-02T05:15:00,0,28214046,184621
OK,82,34,812,82,2014-10-02T05:20:00,0,28214467,184621
OK,82,34,812,82,2014-10-02T05:25:00,0,28214908,184621
OK,82,34,812,82,2014-10-02T05:30:00,0,28215329,184621
OK,62,45,812,62,2014-10-02T05:40:00,1,28215773,184621
OK,62,45,812,62,2014-10-02T05:45:00,0,28216552,184621
OK,62,45,812,62,2014-10-02T05:50:00,0,28216999,184621
OK,118,24,812,118,2014-10-02T05:55:00,1,28217448,184621
OK,118,24,812,118,2014-10-02T06:00:00,0,28217887,184621
OK,118,24,812,118,2014-10-02T06:05:00,0,28218336,184621
OK,118,24,812,118,2014-10-02T06:10:00,0,28218760,184621
OK,284,10,812,284,2014-10-02T06:15:00,2,28219205,184621
OK,444,6,812,444,2014-10-02T06:20:00,3,28219580,184621
OK,443,6,812,443,2014-10-02T06:25:00,4,28220027,184621
OK,309,9,812,309,2014-10-02T06:30:00,3,28220463,184621
OK,95,29,812,95,2014-10-02T06:40:00,4,28220910,184621
OK,88,32,812,88,2014-10-02T06:45:00,3,28221577,184621
OK,141,20,812,141,2014-10-02T07:00:00,3,28222171,184621
OK,145,19,812,145,2014-10-02T07:05:00,0,28222620,184621
OK,48,59,812,48,2014-10-02T07:10:00,1,28223053,184621
OK,48,59,812,48,2014-10-02T07:15:00,0,28223487,184621
OK,48,59,812,48,2014-10-02T07:20:00,0,28223934,184621
OK,48,59,812,48,2014-10-02T07:25:00,0,28224289,184621
OK,48,59,812,48,2014-10-02T07:30:00,0,28224738,184621
OK,161,17,812,161,2014-10-02T07:35:00,0,28225187,184621
OK,161,17,812,161,2014-10-02T07:40:00,0,28225517,184621
OK,117,24,812,117,2014-10-02T07:50:00,4,28226400,184621
OK,117,24,812,117,2014-10-02T07:55:00,4,28226848,184621
OK,117,24,812,117,2014-10-02T08:00:00,0,28227269,184621
OK,85,33,812,85,2014-10-02T08:05:00,2,28227712,184621
OK,105,27,812,105,2014-10-02T08:10:00,0,28228075,184621
OK,112,25,812,112,2014-10-02T08:15:00,4,28228520,184621
OK,128,22,812,128,2014-10-02T08:20:00,3,28228937,184621
OK,65,43,812,65,2014-10-02T08:25:00,3,28229379,184621
OK,60,47,812,60,2014-10-02T08:30:00,0,28229734,184621
OK,130,21,812,130,2014-10-02T08:35:00,4,28230178,184621
OK,145,19,812,145,2014-10-02T08:40:00,0,28230565,184621
OK,145,19,812,145,2014-10-02T08:45:00,0,28230993,184621
OK,145,19,812,145,2014-10-02T08:50:00,0,28231420,184621
OK,145,19,812,145,2014-10-02T08:55:00,0,28231865,184621
OK,117,24,812,117,2014-10-02T09:00:00,2,28232210,184621
OK,136,20,812,136,2014-10-02T09:10:00,0,28232656,184621
OK,97,29,812,97,2014-10-02T09:15:00,2,28233105,184621
OK,98,28,812,98,2014-10-02T09:20:00,1,28233533,184621
OK,120,23,812,120,2014-10-02T09:25:00,0,28233978,184621
OK,120,23,812,120,2014-10-02T09:30:00,0,28234313,184621
OK,80,35,812,80,2014-10-02T09:35:00,2,28234760,184621
OK,70,40,812,70,2014-10-02T09:40:00,1,28235187,184621
OK,70,40,812,70,2014-10-02T09:45:00,0,28235636,184621
OK,70,40,812,70,2014-10-02T09:50:00,0,28236080,184621
OK,117,24,812,117,2014-10-02T09:55:00,2,28236526,184621
OK,117,24,812,117,2014-10-02T10:00:00,2,28236931,184621
OK,139,20,812,139,2014-10-02T10:05:00,0,28237377,184621
OK,120,23,812,120,2014-10-02T10:10:00,2,28237825,184621
OK,129,22,812,129,2014-10-02T10:15:00,7,28238273,184621
OK,176,16,812,176,2014-10-02T10:20:00,4,28238714,184621
OK,93,30,812,93,2014-10-02T10:25:00,2,28239162,184621
OK,93,30,812,93,2014-10-02T10:30:00,0,28239593,184621
OK,137,20,812,137,2014-10-02T10:35:00,1,28240041,184621
OK,98,28,812,98,2014-10-02T10:40:00,3,28240486,184621
OK,90,31,812,90,2014-10-02T10:45:00,4,28240934,184621
OK,90,31,812,90,2014-10-02T10:50:00,0,28241368,184621
OK,94,30,812,94,2014-10-02T10:55:00,6,28241814,184621
OK,96,29,812,96,2014-10-02T11:00:00,0,28242212,184621
OK,96,29,812,96,2014-10-02T11:05:00,0,28242659,184621
OK,136,20,812,136,2014-10-02T11:15:00,6,28243108,184621
OK,107,26,812,107,2014-10-02T11:20:00,4,28243872,184621
OK,99,28,812,99,2014-10-02T11:25:00,2,28244301,184621
OK,99,28,812,99,2014-10-02T11:30:00,0,28244749,184621
OK,105,27,812,105,2014-10-02T11:35:00,3,28245198,184621
OK,105,27,812,105,2014-10-02T11:40:00,0,28245607,184621
OK,105,27,812,105,2014-10-02T11:45:00,0,28246053,184621
OK,162,17,812,162,2014-10-02T11:50:00,5,28246490,184621
OK,83,34,812,83,2014-10-02T11:55:00,6,28246939,184621
OK,93,30,812,93,2014-10-02T12:00:00,8,28247385,184621
OK,108,26,812,108,2014-10-02T12:05:00,2,28247817,184621
OK,123,23,812,123,2014-10-02T12:10:00,0,28248264,184621
OK,74,38,812,74,2014-10-02T12:15:00,1,28248712,184621
OK,74,38,812,74,2014-10-02T12:20:00,0,28249140,184621
OK,125,22,812,125,2014-10-02T12:25:00,5,28249583,184621
OK,131,21,812,131,2014-10-02T12:30:00,4,28250002,184621
OK,139,20,812,139,2014-10-02T12:35:00,0,28250400,184621
OK,105,27,812,105,2014-10-02T12:45:00,7,28251180,184621
OK,157,18,812,157,2014-10-02T13:20:00,2,28251725,184621
OK,115,24,812,115,2014-10-02T13:30:00,5,28252309,184621
OK,115,24,812,115,2014-10-02T13:35:00,1,28252751,184621
OK,115,24,812,115,2014-10-02T13:40:00,0,28253168,184621
OK,149,19,812,149,2014-10-02T13:45:00,0,28253617,184621
OK,149,19,812,149,2014-10-02T13:50:00,0,28254023,184621
OK,191,14,812,191,2014-10-02T13:55:00,1,28254343,184621
OK,170,16,812,170,2014-10-02T14:10:00,3,28254920,184621
OK,125,22,812,125,2014-10-02T14:15:00,2,28255369,184621
OK,138,20,812,138,2014-10-02T14:20:00,2,28255797,184621
OK,196,14,812,196,2014-10-02T14:25:00,1,28256246,184621
OK,154,18,812,154,2014-10-02T14:30:00,1,28256674,184621
OK,218,13,812,218,2014-10-02T14:35:00,1,28257123,184621
OK,224,12,812,224,2014-10-02T14:40:00,2,28257564,184621
OK,231,12,812,231,2014-10-02T14:45:00,4,28258012,184621
OK,161,17,812,161,2014-10-02T14:50:00,4,28258445,184621
OK,155,18,812,155,2014-10-02T14:55:00,4,28258891,184621
OK,135,21,812,135,2014-10-02T15:00:00,1,28259340,184621
OK,80,35,812,80,2014-10-02T15:05:00,2,28259787,184621
OK,113,25,812,113,2014-10-02T15:10:00,2,28260220,184621
OK,86,33,812,86,2014-10-02T15:15:00,6,28260669,184621
OK,72,39,812,72,2014-10-02T15:20:00,3,28261109,184621
OK,121,23,812,121,2014-10-02T15:25:00,1,28261491,184621
OK,121,23,812,121,2014-10-02T15:30:00,0,28261921,184621
OK,141,20,812,141,2014-10-02T15:35:00,2,28262368,184621
OK,141,20,812,141,2014-10-02T15:40:00,0,28262814,184621
OK,82,34,812,82,2014-10-02T15:45:00,2,28263252,184621
OK,98,28,812,98,2014-10-02T15:50:00,1,28263693,184621
OK,98,28,812,98,2014-10-02T15:55:00,0,28264095,184621
OK,98,28,812,98,2014-10-02T16:00:00,0,28264544,184621
OK,85,33,812,85,2014-10-02T16:05:00,2,28264982,184621
OK,104,27,812,104,2014-10-02T16:10:00,0,28265422,184621
OK,104,27,812,104,2014-10-02T16:15:00,0,28265818,184621
OK,82,34,812,82,2014-10-02T16:20:00,3,28266267,184621
OK,94,30,812,94,2014-10-02T16:25:00,3,28266716,184621
OK,126,22,812,126,2014-10-02T16:30:00,1,28267039,184621
OK,126,22,812,126,2014-10-02T16:35:00,0,28267488,184621